GW4718 Weather Reports


Display with metric or nautical units.
time (UTC)temp
F
wind
direction
speed
MPH
gust
MPH
rain 1hr
in
rain 24hr
in
rain mn
in
humidity
%
barometer
mb
20260902175441 89 98 3.0 3.0 0.00 0.00 0.00 63 1022.9
20260902174937 92 101 0.0 2.0 0.00 0.00 0.00 55 1022.9
20260902174434 94 29 0.0 1.0 0.00 0.00 0.00 48 1022.8
20260902173929 94 195 0.0 2.0 0.00 0.00 0.00 51 1023.2
20260902173428 93 36 0.0 3.0 0.00 0.00 0.00 60 1023.0
20260902172924 92 54 3.0 3.0 0.00 0.00 0.00 53 1023.1
20260902172423 92 191 1.0 3.0 0.00 0.00 0.00 52 1023.1
20260902171918 91 162 2.0 2.0 0.00 0.00 0.00 51 1023.2
20260902171414 93 265 5.0 7.0 0.00 0.00 0.00 55 1023.3
20260902170910 92 4 0.0 1.0 0.00 0.00 0.00 54 1023.0
20260902170405 90 325 1.0 3.0 0.00 0.00 0.00 54 1023.3
20260902165900 92 12 0.0 3.0 0.00 0.00 0.00 55 1023.2
20260902165359 92 69 1.0 2.0 0.00 0.00 0.00 56 1023.1
20260902164854 91 111 0.0 3.0 0.00 0.00 0.00 54 1023.1
20260902164349 91 88 3.0 4.0 0.00 0.00 0.00 60 1023.5
20260902163848 90 100 0.0 2.0 0.00 0.00 0.00 56 1023.6
20260902163343 92 84 3.0 3.0 0.00 0.00 0.00 54 1023.5
20260902162842 92 246 0.0 2.0 0.00 0.00 0.00 54 1023.5
20260902162337 91 77 0.0 1.0 0.00 0.00 0.00 61 1023.5
20260902161836 91 143 0.0 1.0 0.00 0.00 0.00 54 1023.6
20260902161332 90 220 2.0 2.0 0.00 0.00 0.00 58 1023.5
20260902160828 89 87 2.0 3.0 0.00 0.00 0.00 58 1023.9
20260902160323 89 117 1.0 3.0 0.00 0.00 0.00 57 1023.7
20260902155821 90 107 0.0 0.0 0.00 0.00 0.00 67 1023.6
20260902155320 88 119 1.0 2.0 0.00 0.00 0.00 64 1023.6
20260902154815 88 67 1.0 3.0 0.00 0.00 0.00 62 1023.7
20260902154311 87 43 3.0 3.0 0.00 0.00 0.00 67 1023.7
20260902153809 87 95 2.0 3.0 0.00 0.00 0.00 73 1023.6
20260902153304 87 97 0.0 3.0 0.00 0.00 0.00 74 1023.6
20260902152800 86 111 0.0 0.0 0.00 0.00 0.00 69 1023.6
20260902152256 85 102 2.0 3.0 0.00 0.00 0.00 74 1024.0
20260902151756 87 69 1.0 2.0 0.00 0.00 0.00 69 1024.0
20260902151252 85 332 0.0 0.0 0.00 0.00 0.00 71 1023.7
20260902150752 85 112 2.0 3.0 0.00 0.00 0.00 74 1023.9
20260902150248 84 99 1.0 2.0 0.00 0.00 0.00 75 1024.1
20260902145747 83 106 2.0 3.0 0.00 0.00 0.00 81 1023.9
20260902145243 84 81 2.0 2.0 0.00 0.00 0.00 77 1024.0
20260902144738 83 95 0.0 2.0 0.00 0.00 0.00 77 1024.2
20260902144234 85 108 2.0 2.0 0.00 0.00 0.00 78 1024.1
20260902143728 83 81 0.0 1.0 0.00 0.00 0.00 77 1024.2
20260902143224 82 80 2.0 2.0 0.00 0.00 0.00 78 1024.3
20260902142719 81 111 1.0 1.0 0.00 0.00 0.00 83 1024.4
20260902142215 80 112 1.0 2.0 0.00 0.00 0.00 83 1024.2
20260902141715 80 53 2.0 2.0 0.00 0.00 0.00 82 1024.3
20260902141211 79 68 1.0 2.0 0.00 0.00 0.00 81 1024.0
20260902140706 80 54 1.0 2.0 0.00 0.00 0.00 83 1024.2
20260902140200 79 17 0.0 1.0 0.00 0.00 0.00 84 1024.0
20260902135659 77 189 0.0 0.0 0.00 0.00 0.00 86 1024.2
20260902135155 76 114 1.0 2.0 0.00 0.00 0.00 89 1024.2
20260902134650 76 179 1.0 1.0 0.00 0.00 0.00 89 1024.3
20260902134150 75 226 1.0 2.0 0.00 0.00 0.00 90 1024.2
20260902133645 75 183 0.0 1.0 0.00 0.00 0.00 88 1024.2
20260902133139 75 191 1.0 1.0 0.00 0.00 0.00 89 1024.1
20260902132635 76 185 2.0 3.0 0.00 0.00 0.00 87 1024.1
20260902132130 76 197 2.0 3.0 0.00 0.00 0.00 87 1024.1
20260902131626 75 121 0.0 2.0 0.00 0.00 0.00 86 1024.1
20260902131121 74 206 0.0 1.0 0.00 0.00 0.00 91 1024.3
20260902130617 74 228 1.0 2.0 0.00 0.00 0.00 89 1024.2
20260902130117 74 221 0.0 1.0 0.00 0.00 0.00 89 1024.2
20260902125613 74 139 1.0 2.0 0.00 0.00 0.00 89 1024.0
20260902125108 74 245 0.0 2.0 0.00 0.00 0.00 89 1023.9
20260902124605 73 256 1.0 3.0 0.00 0.00 0.00 91 1024.2
20260902124105 72 240 1.0 2.0 0.00 0.00 0.00 92 1024.3
20260902123600 72 195 0.0 1.0 0.00 0.00 0.00 94 1024.0
20260902123056 71 256 1.0 2.0 0.00 0.00 0.00 94 1024.1
20260902122555 71 183 2.0 7.0 0.00 0.00 0.00 94 1024.1
20260902122051 69 119 2.0 4.0 0.00 0.00 0.00 96 1023.9
20260902121546 69 117 0.0 0.0 0.00 0.00 0.00 98 1023.9
20260902121040 68 343 0.0 0.0 0.00 0.00 0.00 99 1024.0
20260902120536 68 71 0.0 2.0 0.00 0.00 0.00 99 1023.9
20260902120032 67 68 3.0 3.0 0.00 0.00 0.00 99 1024.0
20260902115532 67 55 2.0 2.0 0.00 0.00 0.00 99 1023.9
20260902115029 67 196 0.0 1.0 0.00 0.00 0.00 99 1024.1
20260902114525 67 68 2.0 2.0 0.00 0.00 0.00 99 1023.9
20260902114024 67 71 0.0 1.0 0.00 0.00 0.00 99 1024.0
20260902113520 67 227 0.0 1.0 0.00 0.00 0.00 99 1024.1
20260902113015 66 81 0.0 1.0 0.00 0.00 0.00 99 1024.0
20260902112510 66 83 0.0 1.0 0.00 0.00 0.00 99 1024.1
20260902112007 67 90 0.0 0.0 0.00 0.00 0.00 99 1024.0
20260902111458 67 90 0.0 0.0 0.00 0.00 0.00 99 1024.0
20260902110953 67 112 0.0 0.0 0.00 0.00 0.00 99 1024.1
20260902110448 67 90 0.0 1.0 0.00 0.00 0.00 99 1024.1
20260902105943 67 57 0.0 0.0 0.00 0.00 0.00 99 1024.1
20260902105439 67 58 0.0 1.0 0.00 0.00 0.00 99 1023.9
20260902104933 67 290 0.0 1.0 0.00 0.00 0.00 99 1023.9
20260902104429 67 233 0.0 0.0 0.00 0.00 0.00 99 1023.9
20260902103928 68 227 1.0 2.0 0.00 0.00 0.00 98 1024.0
20260902103424 68 267 0.0 2.0 0.00 0.00 0.00 97 1024.0
20260902102919 69 228 2.0 4.0 0.00 0.00 0.00 96 1023.9
20260902102416 68 242 2.0 4.0 0.00 0.00 0.00 98 1023.9
20260902101912 68 227 1.0 2.0 0.00 0.00 0.00 98 1023.9
20260902101406 68 257 2.0 4.0 0.00 0.00 0.00 99 1023.7
20260902100906 67 231 1.0 1.0 0.00 0.00 0.00 99 1023.9
20260902100359 68 162 0.0 0.0 0.00 0.00 0.00 99 1023.7
20260902095854 68 229 1.0 2.0 0.00 0.00 0.00 99 1023.9
20260902095348 67 273 0.0 1.0 0.00 0.00 0.00 99 1023.6
20260902094843 68 210 0.0 1.0 0.00 0.00 0.00 99 1023.7
20260902094340 68 251 1.0 2.0 0.00 0.00 0.00 99 1023.9
20260902093838 68 244 1.0 2.0 0.00 0.00 0.00 99 1023.7
20260902093334 68 273 1.0 2.0 0.00 0.00 0.00 98 1023.9
20260902092832 68 253 1.0 3.0 0.00 0.00 0.00 98 1023.9
20260902092328 68 255 1.0 3.0 0.00 0.00 0.00 98 1023.7
20260902091822 68 238 1.0 3.0 0.00 0.00 0.00 98 1023.9
20260902091318 69 176 4.0 6.0 0.00 0.00 0.00 97 1023.7
20260902090815 69 158 0.0 0.0 0.00 0.00 0.00 98 1023.9
20260902090314 69 204 0.0 1.0 0.00 0.00 0.00 97 1024.1
20260902085813 69 211 2.0 3.0 0.00 0.00 0.00 97 1023.9
20260902085308 69 173 2.0 3.0 0.00 0.00 0.00 98 1024.0
20260902084804 68 126 0.0 0.0 0.00 0.00 0.00 99 1024.0
20260902084300 68 105 0.0 2.0 0.00 0.00 0.00 99 1023.6
20260902083755 68 65 1.0 2.0 0.00 0.00 0.00 99 1023.7
20260902083250 68 7 0.0 0.0 0.00 0.00 0.00 99 1023.9
20260902082745 68 50 2.0 3.0 0.00 0.00 0.00 99 1023.6
20260902082242 68 32 1.0 2.0 0.00 0.00 0.00 98 1023.6
20260902081737 69 157 1.0 2.0 0.00 0.00 0.00 98 1023.7
20260902081232 69 264 2.0 2.0 0.00 0.00 0.00 98 1023.6
20260902080727 69 197 1.0 1.0 0.00 0.00 0.00 98 1023.9
20260902080225 68 203 0.0 2.0 0.00 0.00 0.00 98 1023.7
20260902075723 69 165 0.0 0.0 0.00 0.00 0.00 98 1023.9
20260902075220 69 37 0.0 0.0 0.00 0.00 0.00 98 1023.6
20260902074719 69 58 2.0 3.0 0.00 0.00 0.00 98 1023.6
20260902074215 69 60 1.0 2.0 0.00 0.00 0.00 98 1023.6
20260902073710 69 250 2.0 3.0 0.00 0.00 0.00 98 1023.6
20260902073206 69 128 0.0 0.0 0.00 0.00 0.00 98 1023.4
20260902072702 69 70 0.0 0.0 0.00 0.00 0.00 98 1023.6
20260902072158 69 49 1.0 2.0 0.00 0.00 0.00 98 1023.6
20260902071654 69 114 0.0 1.0 0.00 0.00 0.00 98 1023.6
20260902071149 69 59 2.0 3.0 0.00 0.00 0.00 98 1023.5
20260902070645 69 83 0.0 0.0 0.00 0.00 0.00 97 1023.5
20260902070144 70 69 1.0 2.0 0.00 0.00 0.00 97 1023.4
20260902065643 69 226 2.0 3.0 0.00 0.00 0.00 97 1023.4
20260902065139 69 100 1.0 2.0 0.00 0.00 0.00 97 1023.4
20260902064634 70 34 0.0 0.0 0.00 0.00 0.00 97 1023.4
20260902064130 70 90 0.0 0.0 0.00 0.00 0.00 97 1023.2
20260902063625 70 87 0.0 0.0 0.00 0.00 0.00 96 1023.4
20260902063120 70 302 0.0 0.0 0.00 0.00 0.00 97 1023.5
20260902062619 70 144 1.0 2.0 0.00 0.00 0.00 96 1023.5
20260902062115 70 250 2.0 2.0 0.00 0.00 0.00 97 1023.4
20260902061609 70 104 0.0 2.0 0.00 0.00 0.00 96 1023.3
20260902061104 70 349 2.0 2.0 0.00 0.00 0.00 96 1023.4
20260902060600 70 166 1.0 3.0 0.00 0.00 0.00 96 1023.5
20260902060057 70 228 1.0 3.0 0.00 0.00 0.00 96 1023.4
20260902055552 70 249 2.0 2.0 0.00 0.00 0.00 96 1023.6
20260902055047 70 102 1.0 1.0 0.00 0.00 0.00 96 1023.4
20260902054542 70 164 0.0 1.0 0.00 0.00 0.00 97 1023.5
20260902054038 70 232 0.0 2.0 0.00 0.00 0.00 97 1023.6
20260902053532 69 224 1.0 1.0 0.00 0.00 0.00 97 1023.4
20260902053027 69 200 1.0 3.0 0.00 0.00 0.00 97 1023.3
20260902052522 69 243 2.0 2.0 0.00 0.00 0.00 97 1023.2
20260902052018 69 205 1.0 1.0 0.00 0.00 0.00 97 1023.2
20260902051517 69 91 2.0 3.0 0.00 0.00 0.00 97 1023.2
20260902051016 70 285 0.0 0.0 0.00 0.00 0.00 97 1023.0
20260902050510 70 273 0.0 1.0 0.00 0.00 0.00 96 1023.0
20260902050008 70 235 2.0 3.0 0.00 0.00 0.00 96 1023.0
20260902045500 70 159 0.0 1.0 0.00 0.00 0.00 97 1023.2
20260902044957 69 120 0.0 0.0 0.00 0.00 0.00 98 1023.3
20260902044452 69 251 0.0 0.0 0.00 0.00 0.00 97 1023.0
20260902043947 70 129 0.0 1.0 0.00 0.00 0.00 97 1023.0
20260902043442 70 176 0.0 1.0 0.00 0.00 0.00 97 1023.0
20260902042937 70 221 0.0 1.0 0.00 0.00 0.00 97 1022.9
20260902042437 70 182 1.0 1.0 0.00 0.00 0.00 96 1022.9
20260902041932 70 240 0.0 2.0 0.00 0.00 0.00 95 1023.0
20260902041427 70 250 1.0 3.0 0.00 0.00 0.00 95 1022.8
20260902040926 70 198 0.0 3.0 0.00 0.00 0.00 97 1022.8
20260902040420 70 177 1.0 1.0 0.00 0.00 0.00 96 1022.9
20260902035920 70 219 0.0 0.0 0.00 0.00 0.00 95 1022.6
20260902035415 71 239 1.0 2.0 0.00 0.00 0.00 95 1022.7
20260902034914 71 225 1.0 2.0 0.00 0.00 0.00 95 1022.5
20260902034410 71 260 2.0 4.0 0.00 0.00 0.00 95 1022.4
20260902033908 70 227 0.0 1.0 0.00 0.00 0.00 96 1022.5
20260902033402 71 187 1.0 1.0 0.00 0.00 0.00 95 1022.4
20260902032901 72 253 2.0 4.0 0.00 0.00 0.00 94 1022.4
20260902032357 72 187 1.0 4.0 0.00 0.00 0.00 92 1022.6
20260902031857 71 192 1.0 2.0 0.00 0.00 0.00 94 1022.6
20260902031353 72 266 2.0 3.0 0.00 0.00 0.00 93 1022.5
20260902030843 72 197 1.0 1.0 0.00 0.00 0.00 92 1022.5
20260902030337 72 251 0.0 2.0 0.00 0.00 0.00 93 1022.6
20260902025836 72 226 4.0 4.0 0.00 0.00 0.00 93 1022.5
20260902025332 72 202 4.0 6.0 0.00 0.00 0.00 92 1022.6
20260902024832 73 242 3.0 4.0 0.00 0.00 0.00 92 1022.5
20260902024327 71 236 0.0 1.0 0.00 0.00 0.00 94 1022.8
20260902023822 71 209 1.0 2.0 0.00 0.00 0.00 95 1022.6
20260902023319 71 60 2.0 3.0 0.00 0.00 0.00 95 1022.8
20260902022817 71 288 1.0 3.0 0.00 0.00 0.00 95 1022.9
20260902022313 71 93 0.0 3.0 0.00 0.00 0.00 95 1022.7
20260902021809 71 252 3.0 4.0 0.00 0.00 0.00 95 1022.9
20260902021309 71 184 0.0 1.0 0.00 0.00 0.00 95 1022.7
20260902020804 71 198 0.0 1.0 0.00 0.00 0.00 95 1022.7
20260902020300 71 222 0.0 0.0 0.00 0.00 0.00 95 1022.8
20260902015755 71 130 0.0 1.0 0.00 0.00 0.00 95 1022.8
20260902015252 70 128 1.0 2.0 0.00 0.00 0.00 96 1022.8
20260902014747 71 247 0.0 1.0 0.00 0.00 0.00 95 1022.7
20260902014244 71 249 1.0 2.0 0.00 0.00 0.00 95 1022.8
20260902013742 71 57 0.0 0.0 0.00 0.00 0.00 95 1022.7
20260902013238 71 359 0.0 2.0 0.00 0.00 0.00 94 1022.6
20260902012733 72 238 0.0 0.0 0.00 0.00 0.00 93 1022.6
20260902012229 72 203 1.0 3.0 0.00 0.00 0.00 92 1022.6
20260902011724 73 245 1.0 1.0 0.00 0.00 0.00 92 1022.5
20260902011223 72 141 0.0 2.0 0.00 0.00 0.00 93 1022.3
20260902010717 73 228 2.0 2.0 0.00 0.00 0.00 91 1022.5
20260902010213 73 100 2.0 3.0 0.00 0.00 0.00 91 1022.3
20260902005711 73 161 1.0 2.0 0.00 0.00 0.00 91 1022.3
20260902005207 74 164 1.0 3.0 0.00 0.00 0.00 89 1022.1
20260902004707 73 151 0.0 2.0 0.00 0.00 0.00 91 1022.2
20260902004202 72 120 2.0 2.0 0.00 0.00 0.00 91 1022.1
20260902003658 72 166 1.0 2.0 0.00 0.00 0.00 93 1022.2
20260902003153 71 102 0.0 2.0 0.00 0.00 0.00 94 1021.9
20260902002648 72 239 1.0 1.0 0.00 0.00 0.00 94 1021.9
20260902002142 72 79 0.0 2.0 0.00 0.00 0.00 93 1021.9
20260902001637 72 71 0.0 0.0 0.00 0.00 0.00 94 1021.9
20260902001132 72 99 1.0 2.0 0.00 0.00 0.00 94 1021.7
20260902000627 72 42 1.0 2.0 0.00 0.00 0.00 92 1021.7
20260902000122 73 215 0.0 0.0 0.00 0.00 0.00 90 1021.8
20260901235622 74 148 1.0 2.0 0.00 0.00 0.00 90 1021.7
20260901235118 74 138 1.0 2.0 0.00 0.00 0.00 91 1021.7
20260901234616 75 107 2.0 2.0 0.00 0.00 0.00 86 1021.7
20260901234112 74 86 2.0 2.0 0.00 0.00 0.00 88 1021.8
20260901233607 74 167 0.0 0.0 0.00 0.00 0.00 89 1021.7
20260901233103 75 159 0.0 0.0 0.00 0.00 0.00 87 1021.6
20260901232557 75 169 1.0 2.0 0.00 0.00 0.00 87 1021.8
20260901232052 75 68 0.0 1.0 0.00 0.00 0.00 86 1021.7
20260901231549 76 123 0.0 1.0 0.00 0.00 0.00 86 1021.6
20260901231045 77 256 0.0 1.0 0.00 0.00 0.00 84 1021.6
20260901230540 78 93 1.0 1.0 0.00 0.00 0.00 83 1021.7
20260901230035 79 179 1.0 1.0 0.00 0.00 0.00 79 1021.8
20260901225530 80 86 2.0 8.0 0.00 0.00 0.00 71 1021.7
20260901225029 80 179 2.0 3.0 0.00 0.00 0.00 77 1021.8
20260901224525 81 225 0.0 2.0 0.00 0.00 0.00 75 1021.7
20260901224022 80 87 0.0 1.0 0.00 0.00 0.00 76 1021.8
20260901223516 80 141 0.0 1.0 0.00 0.00 0.00 78 1021.7
20260901223011 80 150 0.0 2.0 0.00 0.00 0.00 70 1021.7
20260901222508 82 160 0.0 0.0 0.00 0.00 0.00 74 1021.5
20260901222003 83 195 1.0 2.0 0.00 0.00 0.00 72 1021.6
20260901221459 84 99 4.0 4.0 0.00 0.00 0.00 63 1021.7
20260901220954 85 217 1.0 2.0 0.00 0.00 0.00 64 1021.5
20260901220453 85 248 3.0 6.0 0.00 0.00 0.00 65 1021.5
20260901215952 84 159 0.0 2.0 0.00 0.00 0.00 68 1021.7
20260901215450 85 216 3.0 3.0 0.00 0.00 0.00 63 1021.7
20260901214950 85 144 2.0 3.0 0.00 0.00 0.00 65 1021.8
20260901214448 85 148 3.0 4.0 0.00 0.00 0.00 61 1021.8
20260901213943 85 88 2.0 6.0 0.00 0.00 0.00 66 1021.7
20260901213438 85 167 2.0 3.0 0.00 0.00 0.00 70 1021.8
20260901212937 86 216 0.0 2.0 0.00 0.00 0.00 64 1021.7
20260901212433 86 242 0.0 3.0 0.00 0.00 0.00 61 1021.7
20260901211930 86 228 2.0 3.0 0.00 0.00 0.00 60 1021.6
20260901211425 87 347 2.0 4.0 0.00 0.00 0.00 61 1021.6
20260901210920 85 184 0.0 2.0 0.00 0.00 0.00 67 1021.9
20260901210417 83 88 1.0 1.0 0.00 0.00 0.00 73 1021.6
20260901205913 83 85 3.0 4.0 0.00 0.00 0.00 66 1021.7
20260901205412 83 37 3.0 6.0 0.00 0.00 0.00 69 1021.6
20260901204908 84 59 0.0 1.0 0.00 0.00 0.00 66 1021.8
20260901204404 85 353 2.0 4.0 0.00 0.00 0.00 65 1021.7
20260901203903 86 16 2.0 3.0 0.00 0.00 0.00 63 1021.7
20260901203358 85 28 1.0 1.0 0.00 0.00 0.00 65 1021.7
20260901202853 85 71 1.0 6.0 0.00 0.00 0.00 64 1021.7
20260901202348 86 10 2.0 8.0 0.00 0.00 0.00 64 1021.6
20260901201844 85 352 2.0 2.0 0.00 0.00 0.00 63 1021.7
20260901201344 84 35 3.0 4.0 0.00 0.00 0.00 66 1021.7
20260901200838 84 71 2.0 2.0 0.00 0.00 0.00 66 1021.9
20260901200333 83 173 4.0 6.0 0.00 0.00 0.00 67 1022.1
20260901195832 83 100 2.0 4.0 0.00 0.00 0.00 74 1022.3
20260901195330 83 50 0.0 0.0 0.00 0.00 0.00 73 1022.3
20260901194826 82 69 1.0 1.0 0.00 0.00 0.00 74 1022.1
20260901194320 82 14 0.0 1.0 0.00 0.00 0.00 70 1022.2
20260901193817 82 119 3.0 4.0 0.00 0.00 0.00 73 1022.4
20260901193315 83 90 1.0 2.0 0.00 0.00 0.00 70 1022.5
20260901192810 83 78 4.0 4.0 0.00 0.00 0.00 68 1022.5
20260901192306 84 80 1.0 3.0 0.00 0.00 0.00 69 1022.8
20260901191801 84 125 3.0 7.0 0.00 0.00 0.00 63 1022.9
20260901191252 84 35 2.0 4.0 0.00 0.00 0.00 64 1022.9
20260901190747 85 282 1.0 3.0 0.00 0.00 0.00 63 1022.9
20260901190241 85 286 1.0 3.0 0.00 0.00 0.00 63 1022.9
20260901185740 84 10 0.0 2.0 0.00 0.00 0.00 63 1023.1
20260901185238 85 31 6.0 7.0 0.00 0.00 0.00 63 1023.1
20260901184734 85 285 0.0 3.0 0.00 0.00 0.00 61 1023.1
20260901184230 85 287 1.0 8.0 0.00 0.00 0.00 59 1023.1
20260901183725 85 297 5.0 6.0 0.00 0.00 0.00 61 1023.4
20260901183225 85 348 2.0 4.0 0.00 0.00 0.00 62 1023.4
20260901182721 85 147 3.0 9.0 0.00 0.00 0.00 59 1023.3
20260901182214 85 120 4.0 11.0 0.00 0.00 0.00 62 1023.5
20260901181709 86 254 2.0 7.0 0.00 0.00 0.00 62 1023.6
20260901181203 85 295 3.0 4.0 0.00 0.00 0.00 61 1023.6
20260901180657 86 72 3.0 6.0 0.00 0.00 0.00 56 1023.2
20260901180151 87 276 2.0 3.0 0.00 0.00 0.00 59 1023.5
20260901175650 85 46 0.0 1.0 0.00 0.00 0.00 63 1023.5